Weather History for Cincinnati, OH

Change the Weather History Date:

Sunday, December 9, 2012

  Actual Average Record
Temperature  
Mean Temperature 53 °F -  
Max Temperature 60 °F 45 °F 64 °F (1991)
Min Temperature 46 °F 27 °F 5 °F (1977)
Degree Days  
Heating Degree Days 12    
Growing Degree Days 3 (Base 50)    
Moisture  
Dew Point 52 °F    
Average Humidity 95    
Maximum Humidity 100    
Minimum Humidity 90    
Precipitation  
Precipitation 0.59 in - - ()
Sea Level Pressure  
Sea Level Pressure 29.88 in    
Wind  
Wind Speed 6 mph (SSE)    
Max Wind Speed 12 mph    
Max Gust Speed 33 mph    
Visibility 8 miles    
Events Rain , Thunderstorm    
Averages and records for this station are not official NWS values.
T = Trace of Precipitation, MM = Missing Value Source: NWS Daily Summary

Daily Weather History Graph

Daily Weather History Graph

Search for Another Location

Airport:

Trip Planner

Search our weather history database for the weather conditions in past years. The results will help you decide how hot, cold, wet, or windy it might be!

Date:

Astronomy

Dec. 09, 2012 Rise Set
Actual Time 7:45 AM EST 5:14 PM EST
Civil Twilight 7:15 AM EST 5:44 PM EST
Nautical Twilight 6:42 AM EST 6:18 PM EST
Astronomical Twilight 6:09 AM EST 6:50 PM EST
Moon 3:18 AM EST (12/9) 2:20 PM EST (12/9)
Length of Visible Light 10h 29m
Length of Day
9h 29m
Waning Crescent, 19% of the Moon is Illuminated
Dec 9
Waning Crescent
Dec 13
New
Dec 20
First Quarter
Dec 28
Full
Jan 4
Last Quarter

Hourly Weather History & Observations

Time (EST) Temp. Windchill Dew Point Humidity Pressure Visibility Wind Dir Wind Speed Gust Speed Precip Events Conditions
12:53 AM 48.0 °F - 46.0 °F 93% 30.04 in 8.0 mi NE 5.8 mph - N/A   Overcast
1:40 AM 48.2 °F - 46.4 °F 93% 30.05 in 8.0 mi NE 5.8 mph - N/A   Overcast
1:53 AM 48.0 °F - 46.0 °F 93% 30.04 in 8.0 mi NE 5.8 mph - N/A   Overcast
2:19 AM 48.2 °F - 46.4 °F 93% 30.04 in 8.0 mi NE 5.8 mph - N/A   Overcast
2:53 AM 48.0 °F - 46.0 °F 93% 30.05 in 9.0 mi NE 5.8 mph - N/A   Overcast
3:14 AM 48.2 °F - 46.4 °F 93% 30.05 in 9.0 mi NE 6.9 mph - N/A   Overcast
3:45 AM 46.4 °F 42.9 °F 46.4 °F 100% 30.04 in 9.0 mi NE 6.9 mph - N/A   Overcast
3:53 AM 46.9 °F - 45.0 °F 93% 30.04 in 9.0 mi NE 8.1 mph - N/A   Overcast
4:53 AM 46.9 °F - 45.0 °F 93% 30.04 in 9.0 mi NE 6.9 mph - N/A   Overcast
5:53 AM 46.9 °F - 45.0 °F 93% 30.02 in 10.0 mi NE 5.8 mph - N/A   Overcast
6:53 AM 46.9 °F - 45.0 °F 93% 30.02 in 10.0 mi NE 6.9 mph - N/A   Overcast
7:53 AM 46.9 °F - 45.0 °F 93% 30.01 in 10.0 mi ENE 4.6 mph - N/A   Overcast
8:33 AM 46.4 °F 44.3 °F 44.6 °F 93% 29.99 in 8.0 mi ESE 4.6 mph - N/A   Overcast
8:53 AM 46.9 °F - 46.0 °F 97% 29.99 in 8.0 mi ENE 5.8 mph - N/A   Overcast
9:53 AM 48.9 °F - 46.9 °F 93% 29.99 in 7.0 mi Calm Calm - 0.00 in Rain Light Rain
10:53 AM 50.0 °F - 48.9 °F 96% 29.97 in 8.0 mi Calm Calm - 0.00 in   Overcast
11:53 AM 52.0 °F - 50.0 °F 93% 29.93 in 10.0 mi SSE 5.8 mph - 0.00 in   Overcast
12:53 PM 54.0 °F - 52.0 °F 93% 29.88 in 10.0 mi South 5.8 mph - N/A   Overcast
1:53 PM 55.9 °F - 54.0 °F 93% 29.86 in 10.0 mi SSW 3.5 mph - N/A   Overcast
2:53 PM 59.0 °F - 55.9 °F 90% 29.83 in 10.0 mi SSW 3.5 mph - N/A   Overcast
3:00 PM 59.0 °F - 57.2 °F 94% 29.83 in 10.0 mi South 3.5 mph - N/A   Overcast
3:53 PM 57.9 °F - 57.0 °F 97% 29.83 in 10.0 mi Calm Calm - 0.00 in Rain Light Rain
4:53 PM 60.1 °F - 57.9 °F 93% 29.83 in 10.0 mi South 8.1 mph - 0.00 in   Overcast
5:36 PM 59.0 °F - 57.2 °F 94% 29.81 in 10.0 mi South 5.8 mph - 0.00 in Rain Light Rain
5:53 PM 60.1 °F - 59.0 °F 96% 29.80 in 10.0 mi South 5.8 mph - 0.00 in Rain Light Rain
6:49 PM 60.8 °F - 59.0 °F 94% 29.79 in 10.0 mi South 6.9 mph - 0.00 in   Mostly Cloudy
6:53 PM 60.1 °F - 59.0 °F 96% 29.79 in 10.0 mi SSW 10.4 mph - 0.00 in   Mostly Cloudy
7:53 PM 60.1 °F - 59.0 °F 96% 29.78 in 10.0 mi South 11.5 mph - N/A   Overcast
8:03 PM 60.8 °F - 59.0 °F 94% 29.77 in 10.0 mi South 9.2 mph - N/A   Overcast
8:11 PM 60.8 °F - 59.0 °F 94% 29.76 in 10.0 mi South 8.1 mph - N/A   Overcast
8:41 PM 59.0 °F - 59.0 °F 100% 29.75 in 5.0 mi South 8.1 mph - 0.04 in Rain , Thunderstorm Thunderstorms and Rain
8:53 PM 55.9 °F - 54.0 °F 93% 29.75 in 4.0 mi WSW 5.8 mph 33.4 mph 0.21 in Rain , Thunderstorm Heavy Thunderstorms and Rain
8:56 PM 55.4 °F - 53.6 °F 94% 29.75 in 1.8 mi South 4.6 mph - 0.00 in Rain , Thunderstorm Thunderstorms and Rain
8:58 PM 55.4 °F - 53.6 °F 94% 29.75 in 3.0 mi South 3.5 mph - 0.00 in Rain , Thunderstorm Light Thunderstorms and Rain
9:19 PM 53.6 °F - 53.6 °F 100% 29.74 in 2.5 mi South 3.5 mph - 0.05 in Rain Heavy Rain
9:35 PM 53.6 °F - 53.6 °F 100% 29.77 in 3.0 mi SW 9.2 mph - 0.16 in Rain , Thunderstorm Heavy Thunderstorms and Rain
9:53 PM 55.0 °F - 54.0 °F 96% 29.75 in 9.0 mi SSW 9.2 mph - 0.16 in Rain , Thunderstorm Light Thunderstorms and Rain
10:24 PM 55.4 °F - 55.4 °F 100% 29.75 in 9.0 mi SSW 6.9 mph - 0.00 in Rain Light Rain
10:53 PM 55.0 °F - 55.0 °F 100% 29.75 in 4.0 mi South 10.4 mph - 0.09 in Rain Heavy Rain
11:53 PM 55.0 °F - 55.0 °F 100% 29.74 in 6.0 mi South 6.9 mph - 0.13 in Rain Rain